H1 CPF 2 NER 2024 5 30 9 151 01 glonass129 H2 1106402 9129 37868 2024 5 30 0 0 0 2024 6 2 23 45 0 900 1 1 0 0 0 1 H9 10 0 60460 0.00000 0 18855894.795 15243158.277 -7804687.461 10 0 60460 900.00000 0 17910205.555 14567402.039 -10753367.696 10 0 60460 1800.00000 0 16597893.701 13818036.460 -13492168.276 10 0 60460 2700.00000 0 14933038.062 13053667.495 -15967556.765 10 0 60460 3600.00000 0 12942683.248 12330462.183 -18131144.905 10 0 60460 4500.00000 0 10665936.205 11699642.919 -19940652.016 10 0 60460 5400.00000 0 8152559.387 11205208.299 -21360745.233 10 0 60460 6300.00000 0 5461119.421 10881978.823 -22363738.987 10 0 60460 7200.00000 0 2656769.352 10754051.565 -22930139.344 10 0 60460 8100.00000 0 -191241.818 10833729.909 -23049022.364 10 0 60460 9000.00000 0 -3012227.127 11120973.711 -22718239.423 10 0 60460 9900.00000 0 -5736775.079 11603392.552 -21944446.150 10 0 60460 10800.00000 0 -8299404.540 12256781.270 -20742955.526 10 0 60460 11700.00000 0 -10641050.077 13046173.574 -19137419.276 10 0 60460 12600.00000 0 -12711274.447 13927367.450 -17159345.264 10 0 60460 13500.00000 0 -14470116.995 14848856.093 -14847461.849 10 0 60460 14400.00000 0 -15889502.656 15754081.085 -12246943.087 10 0 60460 15300.00000 0 -16954155.079 16583911.283 -9408511.387 10 0 60460 16200.00000 0 -17661978.688 17279241.738 -6387436.375 10 0 60460 17100.00000 0 -18023896.889 17783602.513 -3242450.525 10 0 60460 18000.00000 0 -18063156.504 18045667.367 -34603.503 10 0 60460 18900.00000 0 -17814130.690 18021557.134 3173922.077 10 0 60460 19800.00000 0 -17320673.233 17676841.720 6321010.428 10 0 60460 20700.00000 0 -16634095.354 16988157.752 9345804.936 10 0 60460 21600.00000 0 -15810851.233 15944375.247 12189870.800 10 0 60460 22500.00000 0 -14910029.894 14547265.558 14798306.679 10 0 60460 23400.00000 0 -13990758.376 12811643.553 17120785.366 10 0 60460 24300.00000 0 -13109624.119 10764978.476 19112505.252 10 0 60460 25200.00000 0 -12318223.094 8446489.483 20735036.124 10 0 60460 26100.00000 0 -11660934.680 5905762.608 21957044.879 10 0 60460 27000.00000 0 -11173014.656 3200945.028 22754888.862 10 0 60460 27900.00000 0 -10879084.667 396589.338 23113066.691 10 0 60460 28800.00000 0 -10792080.377 -2438765.418 23024518.695 10 0 60460 29700.00000 0 -10912702.006 -5235178.633 22490771.348 10 0 60460 30600.00000 0 -11229390.699 -7923954.760 21521922.445 10 0 60460 31500.00000 0 -11718832.881 -10440244.580 20136466.184 10 0 60460 32400.00000 0 -12346973.251 -12725495.382 18360959.848 10 0 60460 33300.00000 0 -13070496.165 -14729649.787 16229536.390 10 0 60460 34200.00000 0 -13838715.515 -16413002.456 13783270.009 10 0 60460 35100.00000 0 -14595795.860 -17747637.242 11069404.587 10 0 60460 36000.00000 0 -15283213.040 -18718384.037 8140457.706 10 0 60460 36900.00000 0 -15842351.584 -19323253.963 5053215.843 10 0 60460 37800.00000 0 -16217129.494 -19573333.099 1867639.004 10 0 60460 38700.00000 0 -16356538.757 -19492137.593 -1354304.556 10 0 60460 39600.00000 0 -16216992.557 -19114455.957 -4549850.629 10 0 60460 40500.00000 0 -15764377.534 -18484726.438 -7656674.011 10 0 60460 41400.00000 0 -14975721.407 -17655017.709 -10614120.641 10 0 60460 42300.00000 0 -13840402.304 -16682698.589 -13364411.047 10 0 60460 43200.00000 0 -12360845.678 -15627896.402 -15853789.567 10 0 60460 44100.00000 0 -10552676.628 -14550853.030 -18033594.810 10 0 60460 45000.00000 0 -8444319.069 -13509292.433 -19861228.474 10 0 60460 45900.00000 0 -6076057.136 -12555912.929 -21301001.974 10 0 60460 46800.00000 0 -3498597.525 -11736112.120 -22324843.123 10 0 60460 47700.00000 0 -771193.071 -11086042.015 -22912848.315 10 0 60460 48600.00000 0 2040593.336 -10631077.417 -23053669.227 10 0 60460 49500.00000 0 4867390.072 -10384762.402 -22744726.746 10 0 60460 50400.00000 0 7638677.786 -10348278.890 -21992248.623 10 0 60460 51300.00000 0 10285498.067 -10510458.550 -20811131.148 10 0 60460 52200.00000 0 12743096.204 -10848335.843 -19224628.839 10 0 60460 53100.00000 0 14953387.626 -11328216.779 -17263879.650 10 0 60460 54000.00000 0 16867145.714 -11907216.037 -14967276.496 10 0 60460 54900.00000 0 18445820.890 -12535195.334 -12379698.876 10 0 60460 55800.00000 0 19662916.892 -13157019.215 -9551621.055 10 0 60460 56700.00000 0 20504869.212 -13715031.422 -6538115.509 10 0 60460 57600.00000 0 20971391.837 -14151646.207 -3397772.082 10 0 60460 58500.00000 0 21075280.867 -14411944.692 -191554.787 10 0 60460 59400.00000 0 20841686.305 -14446166.815 3018381.099 10 0 60460 60300.00000 0 20306885.332 -14211994.356 6169888.577 10 0 60460 61200.00000 0 19516610.786 -13676529.865 9202022.170 10 0 60460 62100.00000 0 18524006.566 -12817889.412 12056202.508 10 0 60460 63000.00000 0 17387296.500 -11626343.444 14677330.948 10 0 60460 63900.00000 0 16167264.424 -10104958.876 17014834.177 10 0 60460 64800.00000 0 14924650.292 -8269716.135 19023620.438 10 0 60460 65700.00000 0 13717569.960 -6149096.203 20664930.870 10 0 60460 66600.00000 0 12599064.825 -3783154.237 21907071.405 10 0 60460 67500.00000 0 11614881.835 -1222116.899 22726012.838 10 0 60460 68400.00000 0 10801574.774 1475440.395 23105848.817 10 0 60460 69300.00000 0 10185004.670 4244763.224 23039103.765 10 0 60460 70200.00000 0 9779300.998 7017347.855 22526885.011 10 0 60460 71100.00000 0 9586326.828 9723533.220 21578875.757 10 0 60460 72000.00000 0 9595670.752 12295150.515 20213167.920 10 0 60460 72900.00000 0 9785167.038 14668122.992 18455936.421 10 0 60460 73800.00000 0 10121923.894 16784909.783 16340959.101 10 0 60460 74700.00000 0 10563818.687 18596693.161 13908989.202 10 0 60460 75600.00000 0 11061399.260 20065218.363 11206990.156 10 0 60460 76500.00000 0 11560113.120 21164208.620 8287245.272 10 0 60460 77400.00000 0 12002771.757 21880295.000 5206357.801 10 0 60460 78300.00000 0 12332146.571 22213420.459 2024159.491 10 0 60460 79200.00000 0 12493586.387 22176699.314 -1197451.783 10 0 60460 80100.00000 0 12437544.590 21795736.322 -4395722.546 10 0 60460 81000.00000 0 12121906.914 21107432.683 -7508278.102 10 0 60460 81900.00000 0 11514018.683 20158328.519 -10474355.333 10 0 60460 82800.00000 0 10592322.698 19002551.621 -13236008.073 10 0 60460 83700.00000 0 9347535.307 17699459.677 -15739259.482 10 0 60460 84600.00000 0 7783308.025 16311076.691 -17935176.857 10 0 60460 85500.00000 0 5916344.208 14899433.521 -19780845.878 10 0 60461 0.00000 0 3775964.138 13523926.776 -21240223.528 10 0 60461 900.00000 0 1403134.374 12238808.633 -22284852.458 10 0 60461 1800.00000 0 -1150995.459 11090916.847 -22894420.245 10 0 60461 2700.00000 0 -3826990.738 10117739.229 -23057154.951 10 0 60461 3600.00000 0 -6559381.899 9345896.427 -22770047.478 10 0 60461 4500.00000 0 -9279172.513 8790105.835 -22038897.873 10 0 60461 5400.00000 0 -11916499.420 8452669.309 -20878185.558 10 0 60461 6300.00000 0 -14403333.049 8323504.563 -19310767.293 10 0 60461 7200.00000 0 -16676104.665 8380716.650 -17367410.206 10 0 60461 8100.00000 0 -18678150.979 8591682.915 -15086170.556 10 0 60461 9000.00000 0 -20361874.719 8914603.003 -12511631.825 10 0 60461 9900.00000 0 -21690532.213 9300446.021 -9694018.515 10 0 60461 10800.00000 0 -22639575.228 9695210.495 -6688204.204 10 0 60461 11700.00000 0 -23197493.361 10042400.001 -3552634.285 10 0 60461 12600.00000 0 -23366124.491 10285608.858 -348185.222 10 0 60461 13500.00000 0 -23160423.155 10371108.268 2863017.025 10 0 60461 14400.00000 0 -22607699.312 10250323.914 6018796.343 10 0 60461 15300.00000 0 -21746361.784 9882101.207 9058120.605 10 0 60461 16200.00000 0 -20624220.855 9234663.756 11922268.219 10 0 60461 17100.00000 0 -19296422.262 8287183.850 14555945.697 10 0 60461 18000.00000 0 -17823099.415 7030900.043 16908336.131 10 0 60461 18900.00000 0 -16266841.632 5469735.767 18934060.130 10 0 60461 19800.00000 0 -14690083.069 3620393.353 20594032.621 10 0 60461 20700.00000 0 -13152519.732 1511919.140 21856200.860 10 0 60461 21600.00000 0 -11708660.404 -815243.279 22696151.160 10 0 60461 22500.00000 0 -10405611.512 -3310674.116 23097573.994 10 0 60461 23400.00000 0 -9281186.491 -5915816.074 23052579.361 10 0 60461 24300.00000 0 -8362416.947 -8566157.210 22561856.582 10 0 60461 25200.00000 0 -7664526.860 -11193670.462 21634675.025 10 0 60461 26100.00000 0 -7190412.424 -13729411.625 20288724.700 10 0 60461 27000.00000 0 -6930649.769 -16106170.625 18549798.132 10 0 60461 27900.00000 0 -6864031.305 -18261068.113 16451317.606 10 0 60461 28800.00000 0 -6958609.780 -20137990.718 14033714.543 10 0 60461 29700.00000 0 -7173207.948 -21689764.074 11343670.677 10 0 60461 30600.00000 0 -7459332.033 -22879972.633 8433233.438 10 0 60461 31500.00000 0 -7763409.736 -23684349.082 5358820.906 10 0 60461 32400.00000 0 -8029259.068 -24091673.515 2180134.329 10 0 60461 33300.00000 0 -8200683.745 -24104142.642 -1041001.313 10 0 60461 34200.00000 0 -8224084.473 -23737191.465 -4241846.064 10 0 60461 35100.00000 0 -8050973.980 -23018773.118 -7359978.751 10 0 60461 36000.00000 0 -7640286.906 -21988125.853 -10334530.437 10 0 60461 36900.00000 0 -6960383.910 -20694078.452 -13107391.653 10 0 60461 37800.00000 0 -5990662.060 -19192965.554 -15624367.856 10 0 60461 38700.00000 0 -4722700.320 -17546241.486 -17836258.472 10 0 60461 39600.00000 0 -3160888.966 -15817894.511 -19699836.450 10 0 60461 40500.00000 0 -1322514.076 -14071772.109 -21178707.555 10 0 60461 41400.00000 0 762708.115 -12368931.708 -22244031.352 10 0 60461 42300.00000 0 3053628.338 -10765130.048 -22875089.005 10 0 60461 43200.00000 0 5499151.271 -9308558.013 -23059686.531 10 0 60461 44100.00000 0 8040149.729 -8037916.840 -22794385.873 10 0 60461 45000.00000 0 10611725.092 -6980916.499 -22084559.861 10 0 60461 45900.00000 0 13145718.446 -6153258.501 -20944271.032 10 0 60461 46800.00000 0 15573366.483 -5558144.296 -19395977.886 10 0 60461 47700.00000 0 17827990.360 -5186327.683 -17470075.757 10 0 60461 48600.00000 0 19847604.799 -5016706.351 -15204282.802 10 0 60461 49500.00000 0 21577338.562 -5017424.682 -12642884.571 10 0 60461 50400.00000 0 22971565.855 -5147438.416 -9835853.407 10 0 60461 51300.00000 0 23995660.912 -5358472.468 -6837861.172 10 0 60461 52200.00000 0 24627304.266 -5597287.035 -3707205.611 10 0 60461 53100.00000 0 24857288.378 -5808154.605 -504672.166 10 0 60461 54000.00000 0 24689791.444 -5935442.289 2707646.141 10 0 60461 54900.00000 0 24142110.532 -5926190.124 5867547.729 10 0 60461 55800.00000 0 23243867.580 -5732576.825 8913917.360 10 0 60461 56700.00000 0 22035723.464 -5314169.820 11787894.541 10 0 60461 57600.00000 0 20567655.278 -4639865.870 14433993.960 10 0 60461 58500.00000 0 18896869.486 -3689441.801 16801157.781 10 0 60461 59400.00000 0 17085437.987 -2454651.240 18843721.267 10 0 60461 60300.00000 0 15197754.849 -939821.918 20522275.030 10 0 60461 61200.00000 0 13297918.284 838071.394 21804409.151 10 0 60461 62100.00000 0 11447144.963 2849862.100 22665326.568 10 0 60461 63000.00000 0 9701322.153 5055157.596 23088315.287 10 0 60461 63900.00000 0 8108797.422 7403777.599 23065071.180 10 0 60461 64800.00000 0 6708496.021 9837607.849 22595865.436 10 0 60461 65700.00000 0 5528442.898 12292795.188 21689553.058 10 0 60461 66600.00000 0 4584750.151 14702195.874 20363421.206 10 0 60461 67500.00000 0 3881112.039 16997978.314 18642878.694 10 0 60461 68400.00000 0 3408829.180 19114274.422 16560990.583 10 0 60461 69300.00000 0 3147362.006 20989770.952 14157864.522 10 0 60461 70200.00000 0 3065391.710 22570133.701 11479898.325 10 0 60461 71100.00000 0 3122345.628 23810163.399 8578901.098 10 0 60461 72000.00000 0 3270324.229 24675592.222 5511103.118 10 0 60461 72900.00000 0 3456349.384 25144444.136 2336072.368 10 0 60461 73800.00000 0 3624839.306 25207899.906 -884441.935 10 0 60461 74700.00000 0 3720205.001 24870628.140 -4087716.222 10 0 60461 75600.00000 0 3689457.144 24150566.240 -7211285.666 10 0 60461 76500.00000 0 3484710.929 23078158.600 -10194178.192 10 0 60461 77400.00000 0 3065480.284 21695082.861 -12978123.514 10 0 60461 78300.00000 0 2400661.316 20052517.276 -15508711.633 10 0 60461 79200.00000 0 1470118.018 18209022.308 -17736476.090 10 0 60461 80100.00000 0 265800.281 16228126.478 -19617878.825 10 0 60461 81000.00000 0 -1207655.502 14175719.368 -21116175.744 10 0 60461 81900.00000 0 -2932870.540 12117363.021 -22202144.790 10 0 60461 82800.00000 0 -4880216.069 10115636.354 -22854661.492 10 0 60461 83700.00000 0 -7008833.970 8227625.478 -23061110.457 10 0 60461 84600.00000 0 -9268142.669 6502666.153 -22817624.942 10 0 60461 85500.00000 0 -11599764.555 4980433.323 -22129150.453 10 0 60462 0.00000 0 -13939793.014 3689457.440 -21009332.224 10 0 60462 900.00000 0 -16221304.355 2646127.825 -19480229.331 10 0 60462 1800.00000 0 -18377005.351 1854224.491 -17571864.040 10 0 60462 2700.00000 0 -20341909.059 1304993.143 -15321614.715 10 0 60462 3600.00000 0 -22055923.536 977758.904 -12773467.038 10 0 60462 4500.00000 0 -23466246.580 841049.004 -9977139.104 10 0 60462 5400.00000 0 -24529466.859 854174.140 -6987098.880 10 0 60462 6300.00000 0 -25213284.845 969199.082 -3861494.259 10 0 60462 7200.00000 0 -25497783.309 1133217.097 -661017.448 10 0 60462 8100.00000 0 -25376196.360 1290830.629 2552273.691 10 0 60462 9000.00000 0 -24855147.130 1386732.634 5716154.336 10 0 60462 9900.00000 0 -23954346.412 1368279.468 8769428.391 10 0 60462 10800.00000 0 -22705766.818 1187947.278 11653098.727 10 0 60462 11700.00000 0 -21152328.440 805569.275 14311490.462 10 0 60462 12600.00000 0 -19346151.778 190260.884 16693307.036 10 0 60462 13500.00000 0 -17346450.917 -678046.985 18752600.453 10 0 60462 14400.00000 0 -15217154.134 -1807530.008 20449638.922 10 0 60462 15300.00000 0 -13024349.703 -3193892.571 21751657.030 10 0 60462 16200.00000 0 -10833661.271 -4820314.339 22633475.744 10 0 60462 17100.00000 0 -8707659.696 -6657924.461 23077981.707 10 0 60462 18000.00000 0 -6703416.580 -8666785.320 23076457.460 10 0 60462 18900.00000 0 -4870298.945 -10797347.175 22628756.556 10 0 60462 19800.00000 0 -3248094.865 -12992316.010 21743319.837 10 0 60462 20700.00000 0 -1865546.746 -15188859.853 20437031.527 10 0 60462 21600.00000 0 -739352.677 -17321064.772 18734916.367 10 0 60462 22500.00000 0 126322.490 -19322540.978 16669681.553 10 0 60462 23400.00000 0 739805.224 -21129072.430 14281110.027 10 0 60462 24300.00000 0 1121341.259 -22681200.726 11615314.469 10 0 60462 25200.00000 0 1302016.019 -23926635.665 8723864.166 10 0 60462 26100.00000 0 1322211.579 -24822391.033 5662799.854 10 0 60462 27000.00000 0 1229664.083 -25336554.750 2491554.269 10 0 60462 27900.00000 0 1077203.003 -25449617.017 -728201.321 10 0 60462 28800.00000 0 920267.870 -25155298.235 -3933762.122 10 0 60462 29700.00000 0 814308.387 -24460839.335 -7062622.236 10 0 60462 30600.00000 0 812179.581 -23386739.968 -10053709.210 10 0 60462 31500.00000 0 961644.576 -21965953.688 -12848594.850 10 0 60462 32400.00000 0 1303093.415 -20242572.827 -15392656.704 10 0 60462 33300.00000 0 1867577.460 -18270057.881 -17636165.439 10 0 60462 34200.00000 0 2675245.400 -16109086.200 -19535274.908 10 0 60462 35100.00000 0 3734249.562 -13825111.277 -21052893.865 10 0 60462 36000.00000 0 5040170.878 -11485736.450 -22159421.033 10 0 60462 36900.00000 0 6575988.210 -9158014.773 -22833328.312 10 0 60462 37800.00000 0 8312594.194 -6905789.696 -23061580.434 10 0 60462 38700.00000 0 10209836.065 -4787189.053 -22839883.039 10 0 60462 39600.00000 0 12218037.287 -2852377.892 -22172754.888 10 0 60462 40500.00000 0 14279935.270 -1141664.060 -21073423.784 10 0 60462 41400.00000 0 16332952.790 315965.127 -19563549.430 10 0 60462 42300.00000 0 18311706.658 1503815.531 -17672780.054 10 0 60462 43200.00000 0 20150647.502 2417929.870 -15438152.968 10 0 60462 44100.00000 0 21786719.289 3066986.782 -12903352.253 10 0 60462 45000.00000 0 23161926.885 3471662.831 -10117839.578 10 0 60462 45900.00000 0 24225704.303 3663487.654 -7135876.414 10 0 60462 46800.00000 0 24936985.229 3683243.634 -4015457.833 10 0 60462 47700.00000 0 25265890.365 3578980.286 -817179.577 10 0 60462 48600.00000 0 25194962.635 3403729.260 2396939.043 10 0 60462 49500.00000 0 24719900.483 3213017.761 5564653.389 10 0 60462 50400.00000 0 23849760.580 3062285.957 8624689.855 10 0 60462 51300.00000 0 22606623.328 3004317.243 11517917.840 10 0 60462 52200.00000 0 21024736.625 3086788.979 14188475.816 10 0 60462 53100.00000 0 19149174.580 3350045.782 16584831.121 10 0 60462 54000.00000 0 17034067.406 3825187.749 18660754.812 10 0 60462 54900.00000 0 14740475.742 4532552.727 20376194.677 10 0 60462 55800.00000 0 12333996.702 5480655.421 21698031.452 10 0 60462 56700.00000 0 9882199.380 6665627.460 22600705.439 10 0 60462 57600.00000 0 7451994.059 8071182.197 23066702.848 10 0 60462 58500.00000 0 5107041.898 9669106.856 23086893.429 10 0 60462 59400.00000 0 2905310.145 11420263.323 22660713.216 10 0 60462 60300.00000 0 896872.148 13276058.324 21796188.550 10 0 60462 61200.00000 0 -877958.167 15180324.537 20509799.943 10 0 60462 62100.00000 0 -2390080.895 17071537.193 18826186.838 10 0 60462 63000.00000 0 -3622593.730 18885276.556 16777696.942 10 0 60462 63900.00000 0 -4571263.231 20556835.806 14403786.514 10 0 60462 64800.00000 0 -5244463.297 22023867.049 11750280.839 10 0 60462 65700.00000 0 -5662582.310 23228955.529 8868506.899 10 0 60462 66600.00000 0 -5856922.459 24122014.021 5814313.216 10 0 60462 67500.00000 0 -5868136.437 24662395.865 2646994.481 10 0 60462 68400.00000 0 -5744266.539 24820636.049 -571858.868 10 0 60462 69300.00000 0 -5538468.704 24579744.647 -3779563.728 10 0 60462 70200.00000 0 -5306518.177 23935995.505 -6913576.011 10 0 60462 71100.00000 0 -5104203.476 22899174.251 -9912725.664 10 0 60462 72000.00000 0 -4984720.895 21492272.813 -12718429.208 10 0 60462 72900.00000 0 -4996182.213 19750641.467 -15275854.134 10 0 60462 73800.00000 0 -5179343.858 17720632.954 -17535010.395 10 0 60462 74700.00000 0 -5565656.405 15457795.320 -19451745.630 10 0 60462 75600.00000 0 -6175719.477 13024689.724 -20988623.044 10 0 60462 76500.00000 0 -7018209.576 10488425.702 -22115663.436 10 0 60462 77400.00000 0 -8089327.721 7918018.513 -22810936.060 10 0 60462 78300.00000 0 -9372791.191 5381680.631 -23060986.415 10 0 60462 79200.00000 0 -10840370.052 2944161.924 -22861092.763 10 0 60462 80100.00000 0 -12452945.538 664250.622 -22215346.925 10 0 60462 81000.00000 0 -14162045.000 -1407460.259 -21136558.732 10 0 60462 81900.00000 0 -15911787.725 -3230448.213 -19645987.180 10 0 60462 82800.00000 0 -17641158.586 -4775701.113 -17772904.966 10 0 60462 83700.00000 0 -19286512.714 -6026663.521 -15554006.388 10 0 60462 84600.00000 0 -20784205.047 -6979652.540 -13032671.680 10 0 60462 85500.00000 0 -22073233.581 -7643728.948 -10258103.630 10 0 60463 0.00000 0 -23097785.137 -8040032.462 -7284354.923 10 0 60463 900.00000 0 -23809577.573 -8200612.629 -4169264.675 10 0 60463 1800.00000 0 -24169899.678 -8166807.213 -973329.826 10 0 60463 2700.00000 0 -24151266.296 -7987239.684 2241471.424 10 0 60463 3600.00000 0 -23738619.433 -7715521.599 5412877.135 10 0 60463 4500.00000 0 -22930027.391 -7407758.135 8479538.639 10 0 60463 5400.00000 0 -21736854.252 -7119962.286 11382194.244 10 0 60463 6300.00000 0 -20183394.058 -6905486.346 14064798.030 10 0 60463 7200.00000 0 -18305985.983 -6812577.901 16475583.333 10 0 60463 8100.00000 0 -16151647.769 -6882161.884 18568042.140 10 0 60463 9000.00000 0 -13776284.042 -7145940.473 20301803.425 10 0 60463 9900.00000 0 -11242543.021 -7624889.341 21643395.366 10 0 60463 10800.00000 0 -8617408.978 -8328212.429 22566878.549 10 0 60463 11700.00000 0 -5969628.156 -9252798.742 23054339.361 10 0 60463 12600.00000 0 -3367072.406 -10383204.361 23096235.034 10 0 60463 13500.00000 0 -874147.199 -11692161.654 22691584.060 10 0 60463 14400.00000 0 1450650.964 -13141596.354 21847997.996 10 0 60463 15300.00000 0 3556928.506 -14684112.501 20581553.113 10 0 60463 16200.00000 0 5404250.495 -16264886.031 18916502.811 10 0 60463 17100.00000 0 6963581.834 -17823890.707 16884834.341 10 0 60463 18000.00000 0 8218254.011 -19298365.840 14525676.094 10 0 60463 18900.00000 0 9164416.593 -20625424.512 11884564.524 10 0 60463 19800.00000 0 9810953.579 -21744694.191 9012582.632 10 0 60463 20700.00000 0 10178866.882 -22600879.244 5965384.810 10 0 60463 21600.00000 0 10300151.557 -23146137.002 2802125.579 10 0 60463 22500.00000 0 10216209.067 -23342165.912 -415687.757 10 0 60463 23400.00000 0 9975864.922 -23161915.578 -3625396.224 10 0 60463 24300.00000 0 9633074.427 -22590843.923 -6764420.079 10 0 60463 25200.00000 0 9244414.276 -21627665.575 -9771494.280 10 0 60463 26100.00000 0 8866467.565 -20284557.164 -12587882.704 10 0 60463 27000.00000 0 8553214.899 -18586808.496 -15158545.434 10 0 60463 27900.00000 0 8353544.470 -16571932.521 -17433234.284 10 0 60463 28800.00000 0 8308989.044 -14288270.518 -19367493.145 10 0 60463 29700.00000 0 8451788.131 -11793150.807 -20923541.915 10 0 60463 30600.00000 0 8803359.425 -9150678.640 -22071025.425 10 0 60463 31500.00000 0 9373245.813 -6429250.835 -22787611.865 10 0 60463 32400.00000 0 10158583.470 -3698900.369 -23059428.658 10 0 60463 33300.00000 0 11144113.876 -1028583.200 -22881327.405 10 0 60463 34200.00000 0 12302738.998 1516478.318 -22256973.250 10 0 60463 35100.00000 0 13596595.450 3877283.901 -21198757.871 10 0 60463 36000.00000 0 14978601.154 6003271.918 -19727538.952 10 0 60463 36900.00000 0 16394407.963 7854172.304 -17872212.636 10 0 60463 37800.00000 0 17784676.541 9401419.998 -15669128.781 10 0 60463 38700.00000 0 19087576.424 10629072.135 -13161361.952 10 0 60463 39600.00000 0 20241405.000 11534193.475 -10397853.855 10 0 60463 40500.00000 0 21187214.615 12126697.232 -7432445.291 10 0 60463 41400.00000 0 21871337.187 12428651.435 -4322817.653 10 0 60463 42300.00000 0 22247700.562 12473083.275 -1129365.514 10 0 60463 43200.00000 0 22279840.165 12302334.726 2085977.197 10 0 60463 44100.00000 0 21942522.705 11966041.032 5260934.400 10 0 60463 45000.00000 0 21222915.313 11518818.855 8334085.435 10 0 60463 45900.00000 0 20121252.589 11017762.304 11246040.405 10 0 60463 46800.00000 0 18650975.062 10519852.338 13940571.653 10 0 60463 47700.00000 0 16838334.209 10079387.909 16365680.897 10 0 60463 48600.00000 0 14721481.050 9745545.717 18474583.156 10 0 60463 49500.00000 0 12349076.062 9560169.578 20226590.403 10 0 60463 50400.00000 0 9778477.412 9555880.664 21587879.777 10 0 60463 51300.00000 0 7073581.198 9754586.524 22532133.349 10 0 60463 52200.00000 0 4302401.165 10166450.455 23041038.552 10 0 60463 53100.00000 0 1534485.736 10789364.143 23104640.601 10 0 60463 54000.00000 0 -1161723.376 11608946.138 22721540.531 10 0 60463 54900.00000 0 -3721484.215 12599067.508 21898934.754 10 0 60463 55800.00000 0 -6086194.176 13722884.608 20652494.473 10 0 60463 56700.00000 0 -8205576.812 14934338.193 19006085.767 10 0 60463 57600.00000 0 -10039526.276 16180058.782 16991333.723 10 0 60463 58500.00000 0 -11559533.122 17401601.046 14647036.788 10 0 60463 59400.00000 0 -12749631.841 18537915.731 12018440.230 10 0 60463 60300.00000 0 -13606829.752 19527956.954 9156380.501 10 0 60463 61200.00000 0 -14140998.076 20313316.003 6116315.173 10 0 60463 62100.00000 0 -14374228.386 20840770.632 2957255.830 10 0 60463 63000.00000 0 -14339680.229 21064641.329 -259376.154 10 0 60463 63900.00000 0 -14079967.489 20948853.231 -3470948.726 10 0 60463 64800.00000 0 -13645151.196 20468614.130 -6614849.242 10 0 60463 65700.00000 0 -13090423.829 19611634.795 -9629720.349 10 0 60463 66600.00000 0 -12473583.960 18378837.120 -12456675.821 10 0 60463 67500.00000 0 -11852409.690 16784517.454 -15040470.695 10 0 60463 68400.00000 0 -11282044.044 14855955.918 -17330600.786 10 0 60463 69300.00000 0 -10812505.310 12632486.508 -19282308.098 10 0 60463 70200.00000 0 -10486429.972 10164066.186 -20857470.783 10 0 60463 71100.00000 0 -10337145.790 7509402.814 -22025358.947 10 0 60463 72000.00000 0 -10387158.172 4733720.884 -22763240.616 10 0 60463 72900.00000 0 -10647114.857 1906259.469 -23056825.669 10 0 60463 73800.00000 0 -11115293.072 -902391.905 -22900539.173 10 0 60463 74700.00000 0 -11777630.540 -3623007.082 -22297619.288 10 0 60463 75600.00000 0 -12608298.213 -6190372.711 -21260038.771 10 0 60463 76500.00000 0 -13570789.239 -8545762.478 -19808252.770 10 0 60463 77400.00000 0 -14619476.613 -10639133.174 -17970779.209 10 0 60463 78300.00000 0 -15701572.101 -12430952.044 -15783621.468 10 0 60463 79200.00000 0 -16759402.159 -13893580.886 -13289546.093 10 0 60463 80100.00000 0 -17732903.480 -15012161.484 -10537231.150 10 0 60463 81000.00000 0 -18562231.914 -15784968.309 -7580303.162 10 0 60463 81900.00000 0 -19190374.286 -16223217.004 -4476282.545 10 0 60463 82800.00000 0 -19565653.010 -16350340.007 -1285459.065 10 0 60463 83700.00000 0 -19644018.563 -16200762.906 1930280.260 10 0 60463 84600.00000 0 -19391034.239 -15818235.667 5108647.791 10 0 60463 85500.00000 0 -18783471.023 -15253790.981 8188153.361 99